This is the latest recevied weather packets stored in our database for station/object SQ5AAG-2. If no packets are shown the sender has not sent any weather packets the latest 1 day(s).
| Time | Temp. | Humidity | Pressure | Rain* | Wind** | Luminosity | Snow |
|---|---|---|---|---|---|---|---|
| 1778073018 | 25.56° C | 41% | 990 hPa | 0 mm | - | - | - |
| 1778071216 | 25° C | 43% | 990.3 hPa | 0 mm | - | - | - |
| 1778070916 | 25° C | 43% | 990.3 hPa | 0 mm | - | - | - |
| 1778070315 | 23.89° C | 44% | 990.5 hPa | 0 mm | - | - | - |
| 1778068903 | 25° C | 42% | 990.3 hPa | 0 mm | - | - | - |
| 1778068002 | 25.56° C | 41% | 990.2 hPa | 0 mm | - | - | - |
| 1778067101 | 25.56° C | 41% | 990 hPa | 0 mm | - | - | - |
| 1778066801 | 25.56° C | 41% | 990 hPa | 0 mm | - | - | - |
| 1778066633 | 25.56° C | 41% | 990.1 hPa | 0 mm | - | - | - |
| 1778066200 | 25° C | 41% | 990.3 hPa | 0 mm | - | - | - |
| 1778065900 | 25.56° C | 41% | 990.3 hPa | 0 mm | - | - | - |
| 1778064999 | 25.56° C | 41% | 990.2 hPa | 0 mm | - | - | - |
| 1778063798 | 24.44° C | 42% | 990.3 hPa | 0 mm | - | - | - |
| 1778061696 | 23.33° C | 43% | 990 hPa | 0 mm | - | - | - |
| 1778060544 | 23.89° C | 42% | 990.5 hPa | 0 mm | - | - | - |
| 1778059895 | 23.89° C | 40% | 990.4 hPa | 0 mm | - | - | - |
| 1778059594 | 23.89° C | 40% | 990.5 hPa | 0 mm | - | - | - |
| 1778059293 | 23.89° C | 40% | 990.4 hPa | 0 mm | - | - | - |
| 1778058993 | 23.89° C | 40% | 990.2 hPa | 0 mm | - | - | - |
| 1778058693 | 23.89° C | 40% | 990.4 hPa | 0 mm | - | - | - |
| 1778057792 | 23.89° C | 39% | 990.2 hPa | 0 mm | - | - | - |
| 1778057492 | 23.89° C | 39% | 990.1 hPa | 0 mm | - | - | - |
| 1778056891 | 23.89° C | 39% | 990 hPa | 0 mm | - | - | - |
| 1778056292 | 23.89° C | 39% | 989.9 hPa | 0 mm | - | - | - |
| 1778055990 | 23.89° C | 40% | 989.8 hPa | 0 mm | - | - | - |
* Rain latest hour (hover to see other rain measurements)
** Current wind speed in m/s (hover to see current wind gust speed)